Wind_Speed
8 9 7 5 3 2 4 5 4 4 3 3 5 6 6 7 7 6 7 8 8 8 8 7 7 6 5 5 5 4 4 3 2 3 3 3 3 2 2 2 3 3 3 2
11 10 7 6 5 6 7 7 6 4 4 4 5 6 5 7 8 7 7 8 8 7 7 7 7 6 5 5 5 5 4 3 3 3 3 2 2 2 2 2 2 3 3 3
13 9 7 8 8 9 9 8 9 8 7 6 6 6 6 6 7 7 7 7 7 7 6 6 6 6 5 5 5 5 5 3 3 3 2 2 2 2 2 3 3 3 3 4
15 12 10 11 11 11 11 11 11 10 9 9 8 8 8 7 7 8 7 7 6 6 6 5 5 5 5 5 5 5 4 4 3 2 2 2 2 2 3 3 3 3 4 4
16 14 13 14 13 13 13 12 12 11 10 11 8 9 9 7 8 8 7 8 6 6 6 6 5 5 5 5 5 5 4 4 3 3 3 3 3 3 4 4 3 3 3 3
18 16 16 16 15 15 14 13 13 13 12 13 9 10 12 10 10 9 7 7 7 7 6 6 5 5 5 5 5 5 5 4 3 3 4 4 5 5 5 5 4 3 3 3
20 19 18 17 17 16 15 14 13 13 12 11 9 10 12 11 11 11 10 9 8 8 7 7 6 5 6 6 5 5 5 5 4 4 4 5 6 7 7 6 5 4 4 4
21 20 19 18 18 18 17 16 15 14 12 11 10 10 11 13 13 12 12 11 10 9 9 8 7 6 6 6 6 5 6 6 5 5 5 6 6 7 7 7 6 6 6 6
21 20 19 21 20 20 19 18 16 15 14 15 13 12 12 13 13 13 12 12 12 10 10 10 9 8 7 7 7 7 7 7 7 7 7 7 7 8 8 8 7 7 7 7
23 22 19 20 23 23 20 18 18 19 18 17 15 13 13 13 14 14 13 14 14 13 12 12 11 11 10 9 9 8 8 8 8 8 8 8 9 8 8 8 8 8 8 8
26 26 23 22 24 22 22 21 21 21 21 18 17 16 15 13 14 14 15 15 15 14 14 14 13 13 12 12 11 11 10 10 10 10 10 10 10 10 10 10 10 10 10 9
28 29 27 24 24 23 23 23 22 23 23 21 21 19 15 14 15 15 16 16 17 16 16 16 15 15 14 14 13 13 13 12 12 12 12 12 12 12 11 11 12 12 12 12
30 30 29 26 24 24 24 24 25 24 24 23 23 22 17 18 17 17 18 19 19 19 18 18 18 18 17 16 16 15 15 15 15 15 14 14 14 14 14 13 14 14 14 14
32 32 31 29 25 26 26 25 25 26 26 25 25 24 21 23 21 20 20 20 19 20 20 19 19 20 19 18 18 17 17 18 18 18 17 17 17 17 16 16 16 16 17 17
33 34 33 32 30 28 28 28 27 28 28 27 27 24 25 25 23 23 23 22 21 22 22 21 20 21 21 20 19 20 20 20 20 20 19 19 19 19 18 18 19 19 19 18
34 35 34 33 31 31 31 30 29 29 30 31 30 28 27 27 26 26 26 25 25 25 24 22 21 22 22 22 22 22 22 22 22 21 21 21 21 21 21 21 21 20 21 21
33 34 34 33 31 31 33 30 29 28 28 30 31 29 28 29 28 29 28 28 27 26 26 24 24 23 24 23 23 23 22 22 22 23 23 23 23 23 23 23 23 23 23 23
34 34 34 33 32 34 33 29 29 30 30 30 31 31 31 32 32 31 29 29 28 27 28 26 25 25 26 26 26 25 24 23 23 23 23 24 25 25 25 24 24 25 26 26
34 35 34 33 33 34 32 31 31 33 34 34 34 34 34 34 33 31 31 31 30 29 29 28 27 27 27 27 27 27 26 26 25 25 26 26 26 26 26 26 26 27 27 28
34 35 35 35 34 32 34 34 32 33 35 36 36 36 35 35 34 34 33 33 32 32 31 31 30 29 30 30 29 28 28 28 28 28 28 29 28 28 29 29 29 29 30 30
33 35 36 35 34 33 33 31 31 34 36 37 38 37 37 37 37 37 35 34 33 34 34 33 33 33 32 32 32 31 31 31 31 31 31 32 32 31 31 32 32 32 33 33
32 33 35 35 34 34 34 33 32 33 35 36 36 37 37 37 38 38 37 36 36 36 36 35 35 35 35 35 34 34 34 33 33 34 34 34 34 34 34 34 34 35 35 36
33 33 34 35 36 36 35 36 35 35 36 36 36 36 37 37 37 38 38 39 38 38 38 38 37 37 37 36 35 35 35 35 35 36 36 37 37 36 37 37 38 38 38 38
35 35 35 37 38 38 37 37 38 39 39 38 37 37 37 37 36 37 38 38 38 39 39 38 37 37 37 37 37 37 37 37 37 37 38 39 39 39 39 39 39 40 40 40
34 34 37 38 39 39 40 40 39 40 40 39 38 37 37 37 37 37 38 38 38 38 38 38 38 38 38 38 39 39 39 39 39 39 40 41 41 40 40 41 41 41 41 41
34 33 35 37 38 39 40 40 40 39 38 38 37 37 37 37 37 37 36 36 35 36 37 38 39 39 39 39 40 40 40 41 41 40 41 42 42 42 42 42 42 42 42 43
Wind_Direction
202 216 221 217 194 224 265 282 288 305 332 340 332 336 352 349 353 5 13 17 18 20 26 33 37 43 54 58 56 51 56 62 67 68 68 69 75 89 90 72 65 53 49 49
215 226 220 221 206 222 237 251 266 277 285 293 310 316 328 336 336 348 354 3 7 9 19 24 32 36 49 50 45 37 32 41 56 63 64 75 76 71 65 60 48 38 37 29
221 227 227 230 227 226 232 241 251 257 268 264 279 286 297 307 314 325 335 346 357 3 6 14 21 26 37 37 34 32 31 38 54 58 50 55 58 43 40 45 35 24 21 16
227 219 222 232 232 226 232 231 244 255 260 269 275 285 292 301 306 305 314 326 340 348 349 356 6 11 19 21 21 20 21 29 40 40 25 18 24 20 14 25 20 10 9 9
223 226 225 229 229 230 229 229 238 248 254 260 267 279 285 295 289 290 300 308 318 330 332 330 344 349 357 1 9 10 10 19 22 13 359 357 355 348 353 5 6 4 7 8
225 227 230 233 231 232 232 232 238 246 252 253 252 261 269 268 281 286 284 290 303 313 319 316 319 329 333 336 348 358 360 358 355 352 347 340 343 350 347 342 344 339 336 342
228 229 231 234 234 233 233 240 244 251 253 258 263 258 267 272 277 277 275 281 283 294 305 307 308 316 321 320 327 337 342 337 332 334 335 334 336 339 344 342 331 318 316 320
235 235 231 235 235 232 229 234 242 255 261 270 264 255 258 270 275 271 274 279 282 278 290 296 298 304 309 308 309 317 321 319 316 319 321 322 324 327 333 336 331 318 311 311
232 239 234 234 235 234 230 233 239 251 252 257 251 249 257 265 269 267 268 273 275 275 283 289 292 287 290 299 303 303 307 308 308 311 315 318 317 319 323 328 322 315 307 303
227 231 232 237 237 238 234 233 237 242 247 251 256 254 259 267 270 270 267 269 269 274 279 280 284 283 282 287 293 297 297 299 301 303 307 310 314 312 313 315 311 307 300 297
226 228 228 232 237 238 235 233 233 241 246 246 254 258 261 266 273 272 266 267 267 269 274 278 279 281 282 281 283 286 290 291 293 295 298 302 306 308 309 308 305 303 300 300
227 229 230 231 237 241 239 237 234 238 242 244 251 256 256 267 270 265 267 267 266 263 269 274 274 278 280 279 279 280 282 284 286 290 293 297 297 299 300 299 299 298 299 301
230 230 232 231 231 236 239 236 234 237 243 248 254 257 253 260 258 259 261 263 263 262 261 265 269 272 275 278 278 277 277 280 283 286 287 291 292 293 293 293 295 295 294 296
230 231 231 229 229 232 236 236 236 237 241 244 249 251 253 256 257 259 262 259 261 265 260 258 263 267 269 272 274 274 278 280 282 283 283 285 287 287 287 289 290 291 293 294
232 233 232 229 227 230 235 239 238 238 239 243 248 253 253 255 255 256 259 261 258 261 261 259 259 264 264 267 271 273 275 276 278 279 281 281 283 284 285 287 288 289 291 292
233 234 235 233 230 232 235 236 238 241 242 242 245 246 249 250 250 251 256 260 258 262 263 265 263 264 264 265 268 271 271 272 274 276 278 281 282 284 285 287 288 289 290 292
235 236 236 236 234 236 237 236 239 241 242 245 246 248 247 249 249 252 256 259 258 260 262 264 265 264 265 265 267 268 271 271 271 273 275 278 279 281 283 286 288 288 291 290
236 237 238 239 238 240 240 239 239 242 243 244 245 245 248 249 251 253 256 258 260 261 260 262 262 264 264 265 265 268 270 271 273 275 277 279 279 281 282 285 287 287 288 290
239 239 239 239 242 243 243 243 240 242 244 244 245 247 250 251 252 252 253 254 257 259 259 261 261 261 261 264 265 266 268 270 273 274 276 278 278 279 281 283 285 286 288 289
241 241 241 241 241 243 245 244 243 245 247 247 246 248 250 250 250 252 255 256 258 261 261 260 261 261 261 263 264 265 269 270 271 272 273 275 276 276 279 282 284 285 287 289
242 242 242 243 242 242 245 245 243 243 246 248 249 249 251 251 250 252 255 257 257 259 260 260 260 260 261 263 264 265 267 267 267 270 271 272 273 275 277 280 283 284 285 287
244 244 244 244 244 242 242 244 243 244 247 250 251 253 253 253 252 252 253 254 255 257 258 258 259 260 261 263 264 264 266 266 267 270 272 272 273 274 276 278 281 282 284 285
239 239 241 241 242 244 244 244 244 246 248 251 252 254 255 256 254 253 253 254 254 256 257 258 259 260 261 262 263 263 265 267 267 270 271 272 273 274 276 278 280 281 283 284
239 238 240 241 242 243 244 245 246 248 249 250 252 253 255 255 254 254 254 255 256 256 257 257 258 258 259 261 263 263 264 266 267 269 270 271 273 275 276 278 280 281 281 282
238 237 239 242 243 243 244 246 247 247 249 251 252 253 254 255 254 254 255 255 257 257 257 257 257 257 258 260 262 264 264 265 266 268 269 270 272 273 275 277 278 280 281 282
243 243 243 244 245 243 244 246 249 250 250 251 252 252 253 253 253 253 255 257 258 257 257 258 259 260 261 263 264 264 264 265 266 268 269 270 272 273 275 276 277 278 280 281
Height
5896 5899 5900 5901 5903 5906 5907 5907 5909 5910 5908 5909 5908 5907 5906 5905 5904 5903 5902 5901 5900 5899 5898 5897 5897 5896 5896 5896 5895 5895 5895 5896 5896 5896 5897 5897 5897 5897 5897 5897 5897 5897 5897 5897
5896 5897 5899 5900 5903 5906 5908 5909 5909 5909 5910 5909 5908 5907 5907 5907 5905 5904 5903 5903 5902 5900 5899 5899 5898 5898 5897 5897 5897 5897 5897 5897 5897 5897 5897 5898 5898 5898 5898 5898 5897 5897 5897 5897
5894 5897 5898 5900 5902 5905 5907 5909 5909 5909 5909 5909 5908 5907 5907 5906 5906 5905 5904 5903 5902 5902 5901 5900 5900 5899 5899 5899 5899 5898 5898 5898 5898 5898 5898 5899 5899 5899 5899 5899 5898 5898 5898 5897
5891 5894 5897 5900 5902 5904 5905 5907 5908 5908 5908 5907 5907 5907 5906 5906 5906 5905 5905 5904 5903 5903 5902 5901 5901 5901 5900 5900 5900 5899 5899 5899 5899 5899 5900 5900 5900 5900 5899 5899 5898 5898 5898 5898
5889 5892 5895 5897 5900 5901 5902 5904 5905 5905 5906 5906 5906 5906 5906 5905 5905 5905 5904 5904 5903 5903 5902 5902 5902 5902 5901 5901 5901 5900 5900 5900 5900 5900 5900 5900 5900 5900 5900 5899 5899 5898 5898 5898
5886 5889 5892 5894 5896 5898 5899 5901 5902 5903 5903 5904 5904 5905 5905 5904 5904 5904 5904 5904 5903 5902 5902 5902 5902 5902 5902 5902 5901 5901 5901 5901 5901 5901 5901 5901 5900 5900 5900 5899 5899 5899 5899 5898
5882 5885 5888 5891 5893 5895 5897 5899 5900 5900 5901 5901 5902 5903 5903 5903 5903 5903 5903 5902 5902 5902 5902 5901 5901 5901 5901 5901 5902 5902 5901 5901 5901 5901 5901 5901 5900 5900 5900 5899 5899 5898 5898 5898
5878 5881 5884 5887 5889 5891 5893 5896 5898 5899 5899 5900 5901 5901 5901 5901 5901 5901 5901 5901 5901 5900 5900 5900 5900 5901 5901 5901 5901 5901 5901 5901 5901 5901 5901 5900 5900 5900 5899 5898 5898 5897 5897 5897
5875 5878 5881 5883 5885 5887 5889 5891 5895 5897 5897 5897 5898 5900 5899 5899 5899 5899 5899 5899 5898 5898 5899 5899 5899 5899 5900 5900 5900 5900 5900 5900 5900 5900 5900 5900 5899 5899 5898 5897 5897 5896 5896 5896
5870 5873 5876 5879 5881 5882 5885 5888 5891 5892 5893 5893 5895 5896 5897 5894 5896 5896 5896 5896 5896 5896 5897 5897 5897 5897 5898 5898 5899 5899 5899 5899 5899 5899 5899 5899 5898 5898 5897 5896 5896 5895 5895 5894
5864 5868 5871 5874 5875 5878 5881 5883 5885 5888 5889 5890 5891 5894 5893 5892 5892 5893 5893 5893 5893 5894 5894 5894 5895 5895 5896 5896 5896 5897 5897 5897 5897 5897 5897 5897 5896 5896 5896 5895 5894 5893 5893 5892
5857 5861 5864 5867 5871 5873 5876 5878 5881 5884 5884 5885 5886 5890 5889 5888 5888 5888 5889 5890 5891 5891 5892 5892 5892 5893 5893 5894 5894 5894 5894 5894 5895 5895 5895 5894 5894 5894 5893 5893 5892 5892 5891 5890
5851 5854 5857 5862 5867 5868 5869 5873 5876 5878 5880 5881 5882 5885 5885 5885 5884 5884 5886 5886 5886 5887 5888 5888 5889 5889 5890 5891 5891 5891 5891 5891 5892 5892 5892 5892 5891 5891 5891 5890 5889 5889 5888 5887
5843 5846 5850 5855 5859 5861 5863 5865 5869 5872 5873 5875 5877 5878 5880 5879 5880 5880 5881 5881 5882 5882 5883 5884 5885 5885 5887 5887 5887 5887 5887 5888 5888 5888 5888 5888 5888 5888 5887 5887 5886 5885 5885 5884
5834 5837 5841 5845 5850 5853 5856 5859 5862 5864 5867 5869 5870 5872 5873 5873 5874 5875 5876 5876 5877 5877 5877 5879 5880 5881 5882 5883 5883 5883 5884 5884 5884 5884 5884 5884 5884 5884 5884 5883 5882 5882 5881 5880
5826 5829 5833 5836 5841 5844 5847 5851 5854 5857 5860 5862 5863 5865 5866 5867 5867 5869 5870 5871 5871 5871 5872 5873 5875 5877 5877 5879 5879 5879 5879 5879 5879 5879 5879 5879 5879 5879 5879 5879 5878 5877 5876 5875
5818 5822 5825 5829 5834 5836 5839 5843 5847 5849 5851 5855 5856 5857 5858 5859 5860 5862 5864 5865 5865 5865 5867 5869 5870 5871 5872 5873 5874 5874 5874 5874 5874 5874 5874 5874 5874 5874 5874 5874 5873 5872 5871 5870
5810 5814 5817 5821 5825 5828 5834 5836 5839 5842 5843 5845 5847 5848 5850 5851 5853 5855 5857 5858 5858 5860 5861 5862 5863 5865 5867 5867 5868 5868 5869 5869 5869 5869 5869 5869 5869 5869 5869 5868 5867 5866 5865 5864
5802 5806 5809 5813 5816 5820 5825 5827 5830 5833 5834 5836 5838 5840 5841 5843 5845 5847 5849 5850 5852 5853 5854 5855 5857 5859 5860 5860 5861 5862 5863 5863 5863 5863 5863 5863 5863 5863 5862 5862 5861 5860 5859 5858
5794 5797 5801 5804 5808 5812 5816 5818 5821 5824 5824 5826 5828 5830 5832 5835 5837 5839 5840 5842 5844 5845 5847 5848 5850 5851 5852 5852 5852 5854 5855 5856 5856 5856 5856 5856 5856 5855 5855 5855 5854 5853 5852 5850
5785 5788 5791 5795 5798 5802 5806 5808 5811 5814 5814 5815 5818 5820 5823 5826 5828 5830 5832 5833 5836 5838 5839 5841 5842 5843 5844 5844 5845 5846 5847 5848 5848 5848 5848 5848 5848 5847 5847 5847 5846 5845 5843 5842
5777 5780 5783 5786 5789 5794 5795 5797 5800 5801 5803 5806 5808 5811 5813 5816 5818 5820 5822 5824 5827 5829 5830 5832 5833 5834 5835 5836 5837 5838 5838 5839 5839 5839 5839 5839 5839 5838 5838 5838 5837 5835 5834 5833
5768 5771 5774 5777 5781 5783 5784 5785 5788 5791 5793 5796 5799 5801 5803 5805 5808 5810 5813 5815 5817 5819 5820 5822 5823 5825 5825 5826 5827 5828 5829 5829 5829 5830 5830 5830 5830 5829 5829 5828 5827 5825 5824 5823
5757 5761 5764 5766 5769 5772 5774 5776 5778 5781 5784 5786 5789 5791 5792 5795 5797 5799 5802 5804 5806 5808 5809 5811 5813 5814 5815 5816 5817 5818 5819 5819 5819 5820 5820 5819 5819 5819 5818 5817 5816 5815 5814 5812
5746 5750 5753 5756 5759 5761 5764 5766 5768 5771 5774 5776 5779 5781 5782 5784 5786 5788 5790 5792 5794 5796 5798 5800 5802 5803 5805 5806 5807 5807 5808 5808 5809 5809 5809 5808 5808 5808 5807 5806 5805 5804 5803 5802
5738 5740 5743 5745 5748 5750 5753 5755 5757 5760 5763 5765 5768 5770 5772 5773 5775 5778 5780 5782 5783 5785 5787 5789 5791 5792 5794 5795 5796 5796 5797 5797 5798 5798 5797 5797 5796 5796 5796 5795 5794 5793 5792 5791